"2009-10-03 00:00:00",1293406,4.201,151.1,2.681,0.22,9.22,104.5693,10.97,12.05,16.83,0,110.3,13.34,11.76,113.1
"2009-10-03 00:00:30",1293407,4.185,148.8,1.587,0.083,9.42,104.569,10.97,12.04,16.85,0,110.3,13.34,11.76,110.8
"2009-10-03 00:01:00",1293408,4.082,151.3,1.617,0.083,9.77,104.5693,10.97,12.05,16.81,0,110.3,13.35,11.76,113.3
"2009-10-03 00:01:30",1293409,4.596,150.5,1.013,0.293,10.12,104.5699,10.97,12.04,16.8,0,110.3,13.35,11.76,112.5
"2009-10-03 00:02:00",1293410,6.178,157.8,6.825,1.329,12.6,104.5717,10.98,12.2,17.06,0,110.3,13.32,11.77,119.8
"2009-10-03 00:02:30",1293411,6.002,158.6,7.26,1.263,13.25,104.5728,10.98,12.25,17.05,0,110.3,13.32,11.77,120.6
"2009-10-03 00:03:00",1293412,7.066,161.6,5.547,0.972,14.55,104.5752,10.99,12.37,17.23,0,110.3,13.31,11.78,123.6
"2009-10-03 00:03:30",1293413,6.374,156,6.341,1.279,12.78,104.5752,10.99,12.27,17.13,0,110.3,13.31,11.78,118.0
"2009-10-03 00:04:00",1293414,4.741,152,4.285,0.677,10.04,104.5767,10.99,12.16,16.88,0,110.3,13.31,11.78,114.0
"2009-10-03 00:04:30",1293415,4.662,150.8,1.407,0.107,9.15,104.5776,10.99,12.06,16.74,0,110.3,13.35,11.78,112.8
"2009-10-03 00:05:00",1293416,4.642,150.7,0.987,0.091,9.48,104.5779,10.99,12.04,16.67,0,110.3,13.35,11.78,112.7
"2009-10-03 00:05:30",1293417,4.682,149.1,1.607,0.123,9.86,104.577,10.99,12.04,16.65,0,110.3,13.35,11.78,111.1
"2009-10-03 00:06:00",1293418,5.817,151.6,7.202,1.359,12.33,104.5802,11,12.2,16.81,0,110.3,13.32,11.79,113.6
"2009-10-03 00:06:30",1293419,5.588,150.9,7.781,1.173,11.96,104.5793,11,12.2,16.76,0,110.3,13.32,11.79,112.9
"2009-10-03 00:07:00",1293420,6.481,161.7,6.492,1.217,14.07,104.5788,10.99,12.33,16.9,0,110.3,13.32,11.79,123.7
"2009-10-03 00:07:30",1293421,7.108,168.1,3.433,0.705,14.77,104.5791,11,12.36,16.93,0,110.3,13.32,11.79,130.1
"2009-10-03 00:08:00",1293422,5.404,162.9,5.486,1.181,10.42,104.5797,11,12.05,16.64,0,110.3,13.31,11.79,124.9
"2009-10-03 00:08:30",1293423,4.823,158.9,1.631,0.112,9.05,104.5808,11,12.06,16.63,0,110.3,13.35,11.79,120.9
"2009-10-03 00:09:00",1293424,4.807,159.6,1.32,0.122,9.23,104.5829,11.01,12.05,16.6,0,110.3,13.35,11.80,121.6
"2009-10-03 00:09:30",1293425,4.725,159.4,1.709,0.117,9.78,104.5847,11.01,12.05,16.56,0,110.3,13.35,11.80,121.4
"2009-10-03 00:10:00",1293426,5.551,160.7,6.266,1.251,11.84,104.5876,11.02,12.19,16.91,0,110.3,13.32,11.81,122.7
"2009-10-03 00:10:30",1293427,6.185,163.6,7.005,1.295,12.43,104.5891,11.02,12.16,16.89,0,110.3,13.32,11.81,125.6
"2009-10-03 00:11:00",1293428,6.506,165.1,6.742,1.318,14.05,104.5918,11.03,12.31,16.99,0,110.3,13.32,11.82,127.1
"2009-10-03 00:11:30",1293429,6.705,166.4,5.821,1.211,13.92,104.5858,11.01,12.26,16.91,0,110.3,13.32,11.80,128.4
"2009-10-03 00:12:00",1293430,5.654,159.2,5.997,1.232,11.08,104.5819,11,12.08,16.77,0,110.3,13.31,11.79,121.2
"2009-10-03 00:12:30",1293431,6.147,164.5,6.127,1.292,11.77,104.5682,10.97,12.13,16.8,0,110.3,13.31,11.76,126.5
"2009-10-03 00:13:00",1293432,4.758,159.6,2.473,0.116,9.39,104.5638,10.96,12.01,16.61,0,110.3,13.35,11.75,121.6
"2009-10-03 00:13:30",1293433,4.836,158,1.336,0.11,9.57,104.5656,10.96,12,16.64,0,110.3,13.35,11.75,120.0
"2009-10-03 00:14:00",1293434,5.731,159,5.594,1.075,11.29,104.5659,10.96,12.13,16.84,0,110.3,13.31,11.75,121.0
"2009-10-03 00:14:30",1293435,6.809,164.9,6.819,1.313,13.44,104.5632,10.95,12.22,16.99,0,110.3,13.31,11.74,126.9
"2009-10-03 00:15:00",1293436,6.755,162.3,8.27,1.339,12.89,104.5653,10.96,12.05,16.84,0,110.3,13.31,11.75,124.3
"2009-10-03 00:15:30",1293437,6.203,158.6,7.011,1.307,12.64,104.5572,10.94,12.15,16.89,0,110.3,13.31,11.73,120.6
"2009-10-03 00:16:00",1293438,5.941,159.2,6.766,1.261,11.25,104.5505,10.92,11.99,16.76,0,110.3,13.31,11.71,121.2
"2009-10-03 00:16:30",1293439,6.024,165.1,6.347,1.311,11.91,104.5394,10.89,12.13,16.98,0,110.3,13.31,11.68,127.1
"2009-10-03 00:17:00",1293440,5.383,158.4,5.404,1.083,9.89,104.5347,10.88,11.94,16.9,0,110.3,13.31,11.67,120.4
"2009-10-03 00:17:30",1293441,5.137,154.7,1.088,0.161,9.69,104.5347,10.88,11.95,16.97,0,110.3,13.35,11.67,116.7
"2009-10-03 00:18:00",1293442,6.862,164.2,6.346,1.326,13.49,104.5347,10.88,12.15,17.2,0,110.3,13.32,11.67,126.2
"2009-10-03 00:18:30",1293443,6.917,161.4,7.079,1.267,13.85,104.5347,10.88,12.2,17.15,0,110.2,13.33,11.67,123.4
"2009-10-03 00:19:00",1293444,6.188,156.9,6.589,1.379,11.81,104.5282,10.87,12.03,16.98,0,110.3,13.33,11.66,118.9
"2009-10-03 00:19:30",1293445,6.519,157.6,7.226,1.358,12.27,104.5124,10.82,11.97,16.91,0,110.3,13.33,11.61,119.6
"2009-10-03 00:20:00",1293446,6.167,156.8,8.23,1.242,12.59,104.5017,10.8,12.11,17.12,0,110.3,13.33,11.59,118.8
"2009-10-03 00:20:30",1293447,5.752,155.1,6.36,1.316,10.84,104.5008,10.8,11.9,16.91,0,110.3,13.33,11.58,117.1
"2009-10-03 00:21:00",1293448,5.396,154.9,4.852,0.829,10.58,104.5008,10.8,11.96,16.96,0,110.3,13.33,11.58,116.9
"2009-10-03 00:21:30",1293449,6.334,161.9,8.16,1.377,12.1,104.5008,10.8,11.89,17.05,0,110.3,13.33,11.58,123.9
"2009-10-03 00:22:00",1293450,6.743,165.7,6.754,1.32,12.93,104.5008,10.8,12.1,17.32,0,110.3,13.33,11.58,127.7
"2009-10-03 00:22:30",1293451,6.332,161.5,6.528,1.287,11.6,104.498,10.79,11.97,17.26,0,110.3,13.33,11.58,123.5
"2009-10-03 00:23:00",1293452,5.292,159.1,1.32,0.115,9.95,104.4904,10.77,11.86,17.22,0,110.3,13.36,11.56,121.1
"2009-10-03 00:23:30",1293453,6.629,166.8,6.824,1.217,12.22,104.4701,10.72,11.92,17.32,0,110.3,13.33,11.51,128.8
"2009-10-03 00:24:00",1293454,5.978,161,7.148,1.037,11.76,104.467,10.71,11.98,17.44,0,110.3,13.33,11.50,123.0
"2009-10-03 00:24:30",1293455,6.267,163.3,6.599,1.32,12.5,104.467,10.71,11.93,17.39,0,110.3,13.33,11.50,125.3
"2009-10-03 00:25:00",1293456,5.803,160.9,6.46,1.269,11.25,104.467,10.71,11.77,17.23,0,110.3,13.33,11.50,122.9
"2009-10-03 00:25:30",1293457,6.642,166.9,6.945,1.293,12.7,104.467,10.71,11.99,17.46,0,110.3,13.33,11.50,128.9
"2009-10-03 00:26:00",1293458,6.862,168.7,6.989,1.217,13.35,104.4631,10.7,11.96,17.41,0,110.3,13.33,11.49,130.7
"2009-10-03 00:26:30",1293459,5.274,159.5,0.892,0.073,9.77,104.4458,10.65,11.74,17.2,0,110.3,13.36,11.44,121.5
"2009-10-03 00:27:00",1293460,5.303,158.3,1.655,0.088,9.98,104.4332,10.62,11.82,17.28,0,110.3,13.36,11.41,120.3
"2009-10-03 00:27:30",1293461,6.462,163.2,7.53,1.279,12.59,104.4332,10.62,11.79,17.29,0,110.3,13.33,11.41,125.2
"2009-10-03 00:28:00",1293462,6.119,164,5.697,1.29,12.63,104.4332,10.62,11.89,17.42,0,110.3,13.33,11.41,126.0
"2009-10-03 00:28:30",1293463,6.482,165.5,6.017,1.238,13.13,104.4318,10.62,11.87,17.41,0,110.3,13.33,11.41,127.5
"2009-10-03 00:29:00",1293464,6.218,162.9,7.092,1.304,12.54,104.4219,10.59,11.88,17.44,0,110.3,13.33,11.38,124.9
"2009-10-03 00:29:30",1293465,6.385,165.6,7.611,1.326,12.74,104.4016,10.54,11.86,17.43,0,110.2,13.33,11.33,127.6
"2009-10-03 00:30:00",1293466,4.768,157.1,1.075,0.09,9.73,104.3993,10.54,11.65,17.25,0,110.2,13.36,11.32,119.1
"2009-10-03 00:30:30",1293467,4.81,156.8,0.937,0.087,9.68,104.3993,10.54,11.63,17.26,0,110.2,13.36,11.32,118.8
"2009-10-03 00:31:00",1293468,5.744,161.1,6.077,1.157,11.66,104.3993,10.54,11.76,17.42,0,110.2,13.33,11.32,123.1
"2009-10-03 00:31:30",1293469,5.463,157.2,6.414,1.087,11.15,104.3886,10.51,11.65,17.36,0,110.2,13.33,11.30,119.2
"2009-10-03 00:32:00",1293470,6.527,162.8,6.374,1.258,14.1,104.3693,10.46,11.8,17.45,0,110.2,13.33,11.25,124.8
"2009-10-03 00:32:30",1293471,6.873,163.9,5.886,1.185,14.13,104.3693,10.46,11.79,17.46,0,110.2,13.33,11.25,125.9
"2009-10-03 00:33:00",1293472,6.328,162.6,6.913,1.305,13.36,104.3717,10.46,11.79,17.52,0,110.2,13.33,11.25,124.6
"2009-10-03 00:33:30",1293473,5.188,158.5,5.362,0.964,10.48,104.3742,10.47,11.54,17.33,0,110.2,13.33,11.26,120.5
"2009-10-03 00:34:00",1293474,4.656,156.2,1.097,0.069,9.66,104.3661,10.45,11.51,17.35,0,110.2,13.36,11.24,118.2
"2009-10-03 00:34:30",1293475,4.628,155.7,0.783,0.078,9.85,104.351,10.41,11.51,17.33,0,110.2,13.37,11.20,117.7
"2009-10-03 00:35:00",1293476,6.021,162.4,7.525,1.294,12.87,104.3528,10.42,11.62,17.47,0,110.2,13.34,11.20,124.4
"2009-10-03 00:35:30",1293477,4.615,157,3.048,0.523,11.22,104.3584,10.43,11.61,17.51,0,110.2,13.34,11.22,119.0
"2009-10-03 00:36:00",1293478,6.566,167.6,6.234,1.046,14.75,104.3521,10.41,11.69,17.59,0,110.2,13.34,11.20,129.6
"2009-10-03 00:36:30",1293479,6.755,168.2,5.09,0.981,14.84,104.3327,10.36,11.73,17.67,0,110.2,13.34,11.15,130.2
"2009-10-03 00:37:00",1293480,5.433,160.4,6.363,1.199,11.33,104.3328,10.37,11.52,17.47,0,110.2,13.34,11.15,122.4
"2009-10-03 00:37:30",1293481,4.719,156.8,1.273,0.092,9.63,104.3328,10.37,11.45,17.42,0,110.2,13.38,11.15,118.8
"2009-10-03 00:38:00",1293482,4.874,158.1,0.572,0.063,9.5,104.3294,10.36,11.38,17.33,0,110.2,13.38,11.14,120.1
"2009-10-03 00:38:30",1293483,4.772,156.2,0.468,0.042,10.03,104.3097,10.31,11.36,17.3,0,110.2,13.38,11.09,118.2
"2009-10-03 00:39:00",1293484,5.337,159.3,6.33,1.049,12.21,104.2995,10.28,11.51,17.5,0,110.2,13.34,11.07,121.3
"2009-10-03 00:39:30",1293485,6.149,164.3,6.488,1.264,13.29,104.2992,10.28,11.39,17.46,0,110.2,13.34,11.07,126.3
"2009-10-03 00:40:00",1293486,6.678,164.9,5.682,1.027,14.84,104.2992,10.28,11.55,17.61,0,110.2,13.34,11.07,126.9
"2009-10-03 00:40:30",1293487,5.985,160.6,6.441,1.306,13.66,104.2967,10.27,11.62,17.6,0,110.2,13.34,11.06,122.6
"2009-10-03 00:41:00",1293488,5.646,157.3,6.744,1.32,11.78,104.2767,10.22,11.38,17.36,0,110.2,13.34,11.01,119.3
"2009-10-03 00:41:30",1293489,4.459,151.3,0.93,0.062,9.33,104.2657,10.19,11.26,17.25,0,110.2,13.38,10.98,113.3
"2009-10-03 00:42:00",1293490,4.369,151.1,0.826,0.057,9.69,104.2654,10.19,11.25,17.25,0,110.2,13.38,10.98,113.1
"2009-10-03 00:42:30",1293491,4.331,151.7,0.931,0.033,10.16,104.2654,10.19,11.23,17.23,0,110.2,13.38,10.98,113.7
"2009-10-03 00:43:00",1293492,5.342,158.4,7.658,1.303,13.21,104.2654,10.19,11.41,17.43,0,110.2,13.35,10.98,120.4
"2009-10-03 00:43:30",1293493,6.598,162.3,6.49,1.091,14.58,104.2651,10.19,11.41,17.51,0,110.2,13.35,10.98,124.3
"2009-10-03 00:44:00",1293494,6.868,164.3,3.81,0.703,15.51,104.2572,10.17,11.55,17.69,0,110.2,13.35,10.96,126.3
"2009-10-03 00:44:30",1293495,5.01,154.6,6.401,1.234,11.7,104.238,10.12,11.39,17.51,0,110.2,13.35,10.91,116.6
"2009-10-03 00:45:00",1293496,5.17,158.4,6.286,1.178,11.09,104.2316,10.11,11.25,17.39,0,110.2,13.35,10.89,120.4
"2009-10-03 00:45:30",1293497,4.37,154.9,0.584,0.051,9.2,104.2316,10.11,11.17,17.41,0,110.2,13.38,10.89,116.9
"2009-10-03 00:46:00",1293498,4.313,154.5,0.594,0.05,9.72,104.2316,10.11,11.16,17.46,0,110.2,13.38,10.89,116.5
"2009-10-03 00:46:30",1293499,4.226,154.6,1.173,0.052,10.54,104.2316,10.11,11.19,17.46,0,110.2,13.38,10.89,116.6
"2009-10-03 00:47:00",1293500,6.014,163.9,6.397,1.213,14.32,104.2316,10.11,11.32,17.6,0,110.2,13.35,10.89,125.9
"2009-10-03 00:47:30",1293501,6.174,162.9,5.592,1.201,15.01,104.2285,10.1,11.41,17.76,0,110.2,13.35,10.89,124.9
"2009-10-03 00:48:00",1293502,6.717,163,4.343,0.7,15.2,104.22,10.08,11.47,17.84,0,110.2,13.35,10.86,125.0
"2009-10-03 00:48:30",1293503,4.911,154,5.496,1.089,11.81,104.2042,10.04,11.31,17.74,0,110.2,13.35,10.82,116.0
"2009-10-03 00:49:00",1293504,4.52,152.2,4.066,0.79,10.24,104.1998,10.02,11.11,17.49,0,110.2,13.35,10.81,114.2
"2009-10-03 00:49:30",1293505,4.293,151.5,0.832,0.072,9.56,104.2024,10.03,11.1,17.45,0,110.2,13.38,10.82,113.5
"2009-10-03 00:50:00",1293506,4.347,152.4,0.707,0.027,9.85,104.2089,10.05,11.09,17.55,0,110.2,13.39,10.84,114.4
"2009-10-03 00:50:30",1293507,4.38,154.4,0.999,0.031,10.45,104.2115,10.05,11.12,17.64,0,110.2,13.39,10.84,116.4
"2009-10-03 00:51:00",1293508,6.114,163.2,7.192,1.328,14.17,104.2156,10.07,11.36,17.94,0,110.2,13.36,10.85,125.2
"2009-10-03 00:51:30",1293509,6.468,167.4,5.643,1.172,14.79,104.2189,10.07,11.31,17.96,0,110.2,13.36,10.86,129.4
"2009-10-03 00:52:00",1293510,6.331,168.2,5.873,1.158,14.38,104.2176,10.07,11.33,18.02,0,110.2,13.36,10.86,130.2
"2009-10-03 00:52:30",1293511,5.005,161,5.54,1.139,10.8,104.2071,10.04,11.11,17.82,0,110.2,13.36,10.83,123.0
"2009-10-03 00:53:00",1293512,4.389,159.5,0.575,0.043,9.38,104.204,10.04,11.05,17.77,0,110.2,13.39,10.82,121.5
"2009-10-03 00:53:30",1293513,4.369,159.9,0.796,0.04,9.53,104.2025,10.03,11.05,17.76,0,110.2,13.39,10.82,121.9
"2009-10-03 00:54:00",1293514,4.259,160.7,0.658,0.044,9.93,104.1994,10.02,11.04,17.74,0,110.1,13.4,10.81,122.7
"2009-10-03 00:54:30",1293515,5.1,163.2,6.262,1.2,12.01,104.1991,10.02,11.16,17.88,0,110.1,13.37,10.81,125.2
"2009-10-03 00:55:00",1293516,5.8,169.1,6.51,1.243,14.54,104.1991,10.02,11.28,17.96,0,110.1,13.37,10.81,131.1
"2009-10-03 00:55:30",1293517,5.654,167.5,6.86,1.216,13.54,104.1991,10.02,11.26,17.91,0,110.1,13.37,10.81,129.5
"2009-10-03 00:56:00",1293518,5.631,168.7,6.025,1.27,13.42,104.1991,10.02,11.23,17.9,0,110.1,13.37,10.81,130.7
"2009-10-03 00:56:30",1293519,4.698,164.5,5.918,1.196,11.23,104.1991,10.02,11.12,17.8,0,110.1,13.37,10.81,126.5
"2009-10-03 00:57:00",1293520,3.942,160.4,0.532,0.033,9.6,104.1991,10.02,11.01,17.69,0,110.1,13.4,10.81,122.4
"2009-10-03 00:57:30",1293521,3.906,160,0.396,0.053,9.74,104.1991,10.02,11,17.64,0,110.1,13.4,10.81,122.0
"2009-10-03 00:58:00",1293522,3.79,159.6,0.578,0.038,10.11,104.1986,10.02,10.99,17.55,0,110.1,13.4,10.81,121.6
"2009-10-03 00:58:30",1293523,4.599,164.7,5.871,1.252,12.15,104.1963,10.02,11.18,17.72,0,110.1,13.37,10.80,126.7
"2009-10-03 00:59:00",1293524,5.381,168.9,6.238,1.264,14.56,104.1921,10.01,11.27,17.83,0,110.1,13.37,10.79,130.9
"2009-10-03 00:59:30",1293525,5.48,169.8,5.861,1.22,14.41,104.1878,9.99,11.13,17.74,0,110.1,13.37,10.78,131.8
"2009-10-03 01:00:00",1293526,5.549,171.3,5.923,1.259,14.08,104.1791,9.97,11.25,17.89,0,110.1,13.37,10.76,133.3
"2009-10-03 01:00:30",1293527,4.329,165.7,4.541,0.967,10.84,104.1692,9.95,11.09,17.73,0,110.1,13.37,10.73,127.7
"2009-10-03 01:01:00",1293528,3.857,165.1,0.835,0.034,9.48,104.1655,9.94,10.98,17.59,0,110.1,13.41,10.72,127.1
"2009-10-03 01:01:30",1293529,3.91,168.1,1.007,0.061,9.67,104.1653,9.94,10.97,17.58,0,110.1,13.41,10.72,130.1
"2009-10-03 01:02:00",1293530,4.467,171.9,4.693,0.907,10.52,104.1653,9.94,10.97,17.56,0,110.1,13.37,10.72,133.9
"2009-10-03 01:02:30",1293531,5.139,177.3,7.234,1.261,12.48,104.1653,9.94,11.12,17.67,0,110.1,13.37,10.72,139.3
"2009-10-03 01:03:00",1293532,5.509,178,6.205,1.272,12.34,104.1653,9.94,11.06,17.58,0,110.1,13.37,10.72,140.0
"2009-10-03 01:03:30",1293533,5.979,183.1,6.657,1.307,13.76,104.1653,9.94,11.2,17.66,0,110.1,13.37,10.72,145.1
"2009-10-03 01:04:00",1293534,6.763,187.1,5.467,1.099,14.66,104.1653,9.94,11.23,17.66,0,110.1,13.37,10.72,149.1
"2009-10-03 01:04:30",1293535,4.964,176.8,2.422,0.643,9.72,104.1653,9.94,11.05,17.47,0,110.1,13.37,10.72,138.8
"2009-10-03 01:05:00",1293536,4.932,176.7,0.383,0.04,9.21,104.1653,9.94,10.95,17.35,0,110.1,13.41,10.72,138.7
"2009-10-03 01:05:30",1293537,4.908,176.4,0.509,0.062,9.42,104.1653,9.94,10.96,17.36,0,110.1,13.41,10.72,138.4
"2009-10-03 01:06:00",1293538,5.986,180.8,6.55,1.308,12.26,104.1661,9.94,11.1,17.53,0,110.1,13.37,10.73,142.8
"2009-10-03 01:06:30",1293539,5.785,180.3,6.496,1.26,12.35,104.1673,9.94,11.1,17.51,0,110.1,13.38,10.73,142.3
"2009-10-03 01:07:00",1293540,5.57,177.9,6.219,1.251,12.15,104.1697,9.95,11.04,17.45,0,110.1,13.38,10.73,139.9
"2009-10-03 01:07:30",1293541,6.404,182.2,6.857,1.162,14.32,104.1691,9.95,11.21,17.67,0,110.1,13.38,10.73,144.2
"2009-10-03 01:08:00",1293542,6.864,182.3,3.747,0.686,15.07,104.1741,9.96,11.14,17.57,0,110.1,13.38,10.75,144.3
"2009-10-03 01:08:30",1293543,4.535,170.2,2.264,0.682,10.27,104.177,9.97,11.07,17.47,0,110.1,13.38,10.75,132.2
"2009-10-03 01:09:00",1293544,4.391,170.3,3.661,0.495,10.15,104.1782,9.97,10.99,17.38,0,110.1,13.41,10.76,132.3
"2009-10-03 01:09:30",1293545,4.826,170.6,5.25,1.017,10.55,104.1832,9.98,10.97,17.34,0,110.1,13.38,10.77,132.6
"2009-10-03 01:10:00",1293546,5.207,172.1,6.976,1.262,12.21,104.1864,9.99,11.12,17.44,0,110.1,13.38,10.78,134.1
"2009-10-03 01:10:30",1293547,4.502,167.8,2.792,0.703,10.73,104.1886,10,10.98,17.31,0,110.1,13.38,10.78,129.8
"2009-10-03 01:11:00",1293548,5.448,173.6,6.682,1.351,13.06,104.1931,10.01,11.18,17.52,0,110.1,13.38,10.79,135.6
"2009-10-03 01:11:30",1293549,6.31,177.8,5.537,1.191,14.31,104.1991,10.02,11.18,17.54,0,110.1,13.38,10.81,139.8
"2009-10-03 01:12:00",1293550,5.694,172.8,7.732,1.185,13.24,104.2083,10.05,11.16,17.52,0,110.1,13.38,10.83,134.8
"2009-10-03 01:12:30",1293551,5.64,171.6,6.459,1.338,12.51,104.2111,10.05,11.14,17.5,0,110.1,13.38,10.84,133.6
"2009-10-03 01:13:00",1293552,4.309,162.5,1.262,0.09,9.76,104.2105,10.05,11,17.34,0,110.1,13.41,10.84,124.5
"2009-10-03 01:13:30",1293553,5.305,170,8.57,1.241,11.89,104.2143,10.06,11.14,17.49,0,110.1,13.38,10.85,132.0
"2009-10-03 01:14:00",1293554,4.509,168.3,4.171,0.873,10.94,104.2157,10.07,11.13,17.5,0,110.1,13.39,10.85,130.3
"2009-10-03 01:14:30",1293555,5.054,171.4,6.796,1.256,12.14,104.2178,10.07,11.07,17.44,0,110.1,13.39,10.86,133.4
"2009-10-03 01:15:00",1293556,4.731,166.5,4.763,0.979,11.39,104.2177,10.07,11.14,17.52,0,110.1,13.39,10.86,128.5
"2009-10-03 01:15:30",1293557,6.316,173.6,5.883,1.189,14.32,104.2126,10.06,11.15,17.5,0,110.1,13.38,10.84,135.6
"2009-10-03 01:16:00",1293558,5.482,167.5,6.283,1.286,11.95,104.2079,10.05,11.13,17.5,0,110.1,13.39,10.83,129.5
"2009-10-03 01:16:30",1293559,5.85,169,6.932,1.305,13.11,104.2056,10.04,11.25,17.56,0,110.1,13.39,10.83,131.0
"2009-10-03 01:17:00",1293560,6.255,169.6,6.796,1.268,13.08,104.2031,10.03,11.16,17.36,0,110.1,13.38,10.82,131.6
"2009-10-03 01:17:30",1293561,5.129,162.2,4.476,0.809,10.51,104.2017,10.03,11.13,17.24,0,110.1,13.39,10.82,124.2
"2009-10-03 01:18:00",1293562,5.704,164,6.468,1.264,11.4,104.2011,10.03,11.05,17.14,0,110.1,13.38,10.82,126.0
"2009-10-03 01:18:30",1293563,5.68,165.3,6.408,1.254,12.09,104.2011,10.03,11.16,17.28,0,110.1,13.38,10.82,127.3
"2009-10-03 01:19:00",1293564,4.966,161.7,4.395,0.765,11.31,104.2008,10.03,11.16,17.33,0,110.1,13.38,10.81,123.7
"2009-10-03 01:19:30",1293565,6.033,167.7,7.609,1.323,12.87,104.2011,10.03,11.1,17.28,0,110.1,13.38,10.82,129.7
"2009-10-03 01:20:00",1293566,6.315,166.6,6.361,1.243,13.6,104.2017,10.03,11.23,17.34,0,110.1,13.38,10.82,128.6
"2009-10-03 01:20:30",1293567,6.18,166.3,6.746,1.311,13.31,104.2011,10.03,11.22,17.25,0,110.1,13.38,10.82,128.3
"2009-10-03 01:21:00",1293568,5.125,160.8,4.251,0.83,10.85,104.2011,10.03,11.16,17.14,0,110.1,13.37,10.82,122.8
"2009-10-03 01:21:30",1293569,5.542,163.3,5.724,1.214,11.35,104.2011,10.03,11.05,16.97,0,110.1,13.38,10.82,125.3
"2009-10-03 01:22:00",1293570,5.237,163.9,5.232,0.92,10.84,104.2011,10.03,11.16,17.06,0,110.1,13.38,10.82,125.9
"2009-10-03 01:22:30",1293571,5.722,166.2,5.554,1.187,11.49,104.2014,10.03,11.08,16.97,0,110.1,13.38,10.82,128.2
"2009-10-03 01:23:00",1293572,5.468,165.6,5.78,1.028,11.61,104.2014,10.03,11.1,17,0,110.1,13.38,10.82,127.6
"2009-10-03 01:23:30",1293573,6.281,169.2,6.653,1.329,13.04,104.2014,10.03,11.2,17.07,0,110.1,13.39,10.82,131.2
"2009-10-03 01:24:00",1293574,6.959,171.1,6.399,1.221,14.29,104.2034,10.03,11.27,17.15,0,110.1,13.39,10.82,133.1
"2009-10-03 01:24:30",1293575,7.09,170.2,6.076,1.152,14.15,104.2031,10.03,11.28,17.13,0,110.1,13.39,10.82,132.2
"2009-10-03 01:25:00",1293576,5.68,162.4,5.024,1.014,11.02,104.2034,10.03,11.08,16.93,0,110.1,13.39,10.82,124.4
"2009-10-03 01:25:30",1293577,5.613,163.9,4.947,0.905,10.67,104.2034,10.03,11.03,16.88,0,110.1,13.39,10.82,125.9
"2009-10-03 01:26:00",1293578,6.046,167,6.666,1.226,12.23,104.2036,10.03,11.18,17.03,0,110.1,13.39,10.82,129.0
"2009-10-03 01:26:30",1293579,5.223,162.7,2.568,0.519,10.45,104.2065,10.04,11.05,16.89,0,110.1,13.39,10.83,124.7
"2009-10-03 01:27:00",1293580,5.178,162.4,2.509,0.083,10.83,104.2042,10.04,11.15,16.99,0,110.1,13.42,10.82,124.4
"2009-10-03 01:27:30",1293581,7.278,171.2,5.546,1.07,14.2,104.2039,10.04,11.25,17.04,0,110.1,13.39,10.82,133.2
"2009-10-03 01:28:00",1293582,7.557,174.4,4.404,0.724,15.46,104.2042,10.04,11.36,17.16,0,110.1,13.39,10.82,136.4
"2009-10-03 01:28:30",1293583,6.578,169.4,6.96,1.328,13.39,104.2036,10.03,11.29,17.09,0,110.1,13.39,10.82,131.4
"2009-10-03 01:29:00",1293584,5.247,159.9,0.915,0.055,10.03,104.2067,10.04,11.05,16.81,0,110.1,13.42,10.83,121.9
"2009-10-03 01:29:30",1293585,6.334,165.3,6.019,1.279,12.03,104.2036,10.03,11.19,16.95,0,110.1,13.39,10.82,127.3
"2009-10-03 01:30:00",1293586,5.767,164.3,6.62,1.131,11.86,104.2025,10.03,11.19,16.9,0,110.1,13.39,10.82,126.3
"2009-10-03 01:30:30",1293587,5.182,160.7,1.062,0.08,10.42,104.2053,10.04,11.06,16.76,0,110.1,13.42,10.83,122.7
"2009-10-03 01:31:00",1293588,5.388,159.6,1.482,0.513,10.64,104.2036,10.03,11.05,16.73,0,110.1,13.39,10.82,121.6
"2009-10-03 01:31:30",1293589,7.394,168.4,5.626,1.017,14.98,104.2034,10.03,11.37,16.98,0,110.1,13.39,10.82,130.4
"2009-10-03 01:32:00",1293590,7.385,167.6,4.924,0.921,15.23,104.2053,10.04,11.35,16.94,0,110.1,13.39,10.83,129.6
"2009-10-03 01:32:30",1293591,5.809,159.3,5.9,1.143,11.81,104.2076,10.04,11.09,16.67,0,110.1,13.39,10.83,121.3
"2009-10-03 01:33:00",1293592,5.625,159.2,5.688,0.967,11.38,104.2067,10.04,11.22,16.72,0,110.1,13.39,10.83,121.2
"2009-10-03 01:33:30",1293593,5.682,158.6,5.349,1.095,10.83,104.2062,10.04,11.14,16.62,0,110.1,13.39,10.83,120.6
"2009-10-03 01:34:00",1293594,5.184,157.5,3.29,0.468,10.67,104.2059,10.04,11.1,16.55,0,110.1,13.42,10.83,119.5
"2009-10-03 01:34:30",1293595,5.198,157.3,0.525,0.034,10.51,104.2059,10.04,11.06,16.52,0,110.1,13.42,10.83,119.3
"2009-10-03 01:35:00",1293596,6.565,165,6.617,1.28,13.9,104.2059,10.04,11.33,16.78,0,110.1,13.39,10.83,127.0
"2009-10-03 01:35:30",1293597,7.307,169.2,5.081,1.034,15.35,104.2039,10.04,11.42,16.91,0,110.1,13.39,10.82,131.2
"2009-10-03 01:36:00",1293598,6.496,167.2,6.467,1.278,14.5,104.2042,10.04,11.35,16.88,0,110.1,13.39,10.82,129.2
"2009-10-03 01:36:30",1293599,5.836,162.9,6.232,1.183,11.27,104.2073,10.04,11.1,16.63,0,110.1,13.39,10.83,124.9
"2009-10-03 01:37:00",1293600,5.908,162.8,6.44,1.242,11.8,104.2073,10.04,11.19,16.72,0,110.1,13.39,10.83,124.8
"2009-10-03 01:37:30",1293601,4.915,157.6,0.354,0.473,9.9,104.2084,10.05,11.06,16.56,0,110.1,13.39,10.83,119.6
"2009-10-03 01:38:00",1293602,4.953,156.3,0.416,0.034,10.03,104.2098,10.05,11.06,16.48,0,110.1,13.42,10.84,118.3
"2009-10-03 01:38:30",1293603,5.862,160.3,6.512,1.276,12.44,104.2101,10.05,11.19,16.59,0,110.1,13.39,10.84,122.3
"2009-10-03 01:39:00",1293604,7.13,166.2,5.747,1.082,14.73,104.2101,10.05,11.29,16.7,0,110.1,13.39,10.84,128.2
"2009-10-03 01:39:30",1293605,7.417,168.6,5.122,1.025,15,104.2121,10.06,11.31,16.78,0,110.1,13.39,10.84,130.6
"2009-10-03 01:40:00",1293606,5.945,161.9,5.848,1.075,11.48,104.2104,10.05,11.19,16.67,0,110.1,13.39,10.84,123.9
"2009-10-03 01:40:30",1293607,6.624,167.7,7.393,1.299,12.13,104.2104,10.05,11.21,16.69,0,110.1,13.39,10.84,129.7
"2009-10-03 01:41:00",1293608,5.836,163.7,2.515,0.654,9.95,104.2093,10.05,11.1,16.67,0,110.1,13.39,10.84,125.7
"2009-10-03 01:41:30",1293609,5.709,163.3,0.348,0.061,10.07,104.2059,10.04,11.08,16.7,0,110.1,13.42,10.83,125.3
"2009-10-03 01:42:00",1293610,5.785,162.3,0.446,0.059,10.5,104.2028,10.03,11.13,16.83,0,110.1,13.43,10.82,124.3
"2009-10-03 01:42:30",1293611,7.52,171.8,6.053,1.267,14.45,104.2029,10.03,11.32,16.98,0,110.1,13.4,10.82,133.8
"2009-10-03 01:43:00",1293612,7.624,171.1,5.812,1.239,14.33,104.2032,10.03,11.3,16.92,0,110.1,13.4,10.82,133.1
"2009-10-03 01:43:30",1293613,7.192,165.3,6.623,1.237,13.79,104.2014,10.03,11.32,16.92,0,110.1,13.39,10.82,127.3
"2009-10-03 01:44:00",1293614,6.429,159.2,6.609,1.244,11.38,104.2032,10.03,11.13,16.68,0,110.1,13.39,10.82,121.2
"2009-10-03 01:44:30",1293615,6.589,157.5,6.475,1.287,12.06,104.2029,10.03,11.19,16.63,0,110.1,13.39,10.82,119.5
"2009-10-03 01:45:00",1293616,5.577,152.3,1.14,0.06,9.85,104.2044,10.04,11.06,16.44,0,110.1,13.43,10.82,114.3
"2009-10-03 01:45:30",1293617,6.244,158.3,4.726,1.068,10.87,104.2061,10.04,11.08,16.58,0,110.1,13.39,10.83,120.3
"2009-10-03 01:46:00",1293618,6.989,165.6,6.411,1.271,12.93,104.2064,10.04,11.23,16.83,0,110.1,13.4,10.83,127.6
"2009-10-03 01:46:30",1293619,7.034,167.2,6.472,1.27,13,104.2067,10.04,11.2,16.9,0,110.1,13.4,10.83,129.2
"2009-10-03 01:47:00",1293620,7.588,170.2,5.47,1.219,14.03,104.2067,10.04,11.34,17.04,0,110.1,13.4,10.83,132.2